Regional Weather Roundup
Issued by NWS

Home | Current Version | Previous Version | Graphics & Text | Print | Product List | Glossary Off
Versions: 1 2 3 4 5 6 7 8 9 10 11 12 13 14 15 16 17 18 19 20 21 22 23 24 25 26 27 28 29 30 31 32 33 34 35 36 37 38 39 40 41 42 43 44 45 46 47 48 49 50

000
ASUS43 KFSD 152102
RWRSD

WEATHER ROUNDUP FOR SOUTH DAKOTA
NATIONAL WEATHER SERVICE SIOUX FALLS SD
400 PM CDT TUE APR 15 2014

NOTE: "FAIR" INDICATES FEW OR NO CLOUDS BELOW 12,000 FEET WITH NO
SIGNIFICANT WEATHER AND/OR OBSTRUCTIONS TO VISIBILITY.


SDZ001>005-009-010-012>017-152200-
NORTHWEST AND NORTH CENTRAL SOUTH DAKOTA

CITY           SKY/WX    TMP DP  RH WIND       PRES   REMARKS
BUFFALO          N/A     65  17  15 NW28G36   29.50F
MOBRIDGE       MOSUNNY   51  20  29 SE24      29.69F
$$

SDZ012>016-024>037-041>051-057-063-072>074-152200-
SOUTHWEST AND SOUTH CENTRAL SOUTH DAKOTA

CITY           SKY/WX    TMP DP  RH WIND       PRES   REMARKS
RAPID CTY ARPT MOSUNNY   64  19  17 VRB5      29.59F
PIERRE         MOSUNNY   60  23  24 SE18      29.65F
CUSTER         SUNNY     53  15  22 W15G25    29.67F
PHILIP         SUNNY     64  20  18 VRB3      29.61F
PINE RIDGE     MOSUNNY   65  18  16 W16G24    29.66F
WINNER         FAIR      66  22  18 S18       29.66F
$$

SDZ004>011-016>023-039-040-152200-
NORTHEAST SOUTH DAKOTA

CITY           SKY/WX    TMP DP  RH WIND       PRES   REMARKS
ABERDEEN       PTSUNNY   45  17  32 SE21      29.85F
WATERTOWN      CLOUDY    40  14  34 S17G28    29.89F
SISSETON         N/A     35  15  44 SE20      29.95F WCI  24
$$

SDZ017-020-022-023-036>040-048>070-152200-
SOUTHEAST SOUTH DAKOTA

CITY           SKY/WX    TMP DP  RH WIND       PRES   REMARKS
SIOUX FALLS    MOSUNNY   46  18  32 S20G29    29.92F
HURON          PTSUNNY   48  17  29 S18G32    29.82F
CHAMBERLAIN      N/A     60  22  23 S25       29.71F
MITCHELL       SUNNY     51  22  31 S23G36    29.84F
YANKTON        MOSUNNY   48  25  40 S21G30    29.90F
$$

ABBREVIATIONS USED IN REMARKS
   TC - TEMPERATURE IN CELSIUS
  WCI - WIND CHILL INDEX
   HX - HEAT INDEX
  VSB - VISIBILITY




USA.gov is the U.S. government's official web portal to all federal, state and local government web resources and services.